This demonstration page uses our WeatherBlox Daily Observations layout. Learn more.

Left ArrowRight Arrow

39.12711, -84.51439

Hourly Observations for April 30, 2018

Temp ( °F °C ) Dew Point ( °F °C ) Humidity (%) Winds ( mph kmh ) Pressure ( in mb ) Visibility ( mi km ) Precip ( " mm )
12:53 am 00:53 Clear 41 5 36 2.2 82 82 Calm 30.31 1026 10 16 0.00 0.00
1:53 am 01:53 Clear 37 2.8 35 1.7 93 93 Calm 30.30 1026 10 16 0.00 0.00
2:53 am 02:53 Clear 36 2.2 35 1.7 97 97 Calm 30.29 1026 10 16 0.00 0.00
3:53 am 03:53 Clear 37 2.8 35 1.7 93 93 Calm 30.29 1026 10 16 0.00 0.00
4:53 am 04:53 Clear 35 1.7 34 1.1 96 96 Calm 30.30 1026 9 14 0.00 0.00
5:53 am 05:53 Clear 34 1.1 34 1.1 100 100 Calm 30.31 1026 9 14 0.00 0.00
6:53 am 06:53 Sunny 33 0.6 33 0.6 100 100 Calm 30.34 1027 10 16 0.00 0.00
7:53 am 07:53 Sunny 37 2.8 36 2.2 96 96 Calm 30.36 1028 9 14 0.00 0.00
8:53 am 08:53 Sunny 43 6.1 40 4.4 89 89 Calm 30.36 1028 10 16 0.00 0.00
9:53 am 09:53 Sunny 53 11.7 41 5 64 64 Calm 30.36 1028 10 16 0.00 0.00
10:53 am 10:53 Sunny 59 15 36 2.2 42 42 SSW 5 7 30.35 1028 10 16 0.00 0.00
11:53 am 11:53 Sunny 62 16.7 34 1.1 35 35 SSE 5 7 30.33 1027 10 16 0.00 0.00
12:53 pm 12:53 Sunny 65 18.3 35 1.7 33 33 SSW 7 11 30.30 1026 10 16 0.00 0.00
1:53 pm 13:53 Sunny 67 19.4 35 1.7 31 31 S 6 9 30.27 1025 10 16 0.00 0.00
2:53 pm 14:53 Sunny 69 20.6 31 -0.6 24 24 S 3 6 30.25 1025 10 16 0.00 0.00
3:53 pm 15:53 Sunny 70 21.1 34 1.1 27 27 S 8 13 30.22 1023 10 16 0.00 0.00
4:53 pm 16:53 Sunny 71 21.7 33 0.6 25 25 SW 9 15 30.19 1022 10 16 0.00 0.00
5:53 pm 17:53 Sunny 71 21.7 34 1.1 26 26 S 9 15 30.18 1022 10 16 0.00 0.00
6:53 pm 18:53 Sunny 70 21.1 39 3.9 32 32 SSW 6 9 30.16 1022 10 16 0.00 0.00
7:53 pm 19:53 Sunny 64 17.8 39 3.9 40 40 SW 7 11 30.16 1021 10 16 0.00 0.00
8:53 pm 20:53 Clear 59 15 43 6.1 56 56 Calm 30.16 1021 10 16 0.00 0.00
9:53 pm 21:53 Clear 54 12.2 44 6.7 69 69 Calm 30.16 1022 10 16 0.00 0.00
10:53 pm 22:53 Clear 50 10 44 6.7 80 80 Calm 30.16 1021 10 16 0.00 0.00
11:53 pm 23:53 Clear 49 9.4 43 6.1 80 80 Calm 30.15 1021 10 16 0.00 0.00

Powered by AerisWeather